HK6LRQ-22 Weather Reports


time (UTC)temp
C
wind
direction
speed
KPH
gust
KPH
rain 1hr
cm
rain 24hr
cm
rain mn
cm
humidity
%
barometer
mb
20260504193355 22 0 3.2 0.0 0.00 0.00 0.00 83 1010.0
20260504190354 22 0 8.0 0.0 0.00 0.00 0.00 84 1011.0
20260504183353 22 0 8.0 0.0 0.00 0.00 0.00 85 1011.0
20260504180352 23 0 8.0 0.0 0.00 0.00 0.00 84 1012.0
20260504173351 21 0 8.0 0.0 0.00 0.00 0.00 87 1012.0
20260504170350 21 200 6.4 0.0 0.00 0.00 0.00 88 1014.0
20260504160347 20 230 4.8 0.0 0.00 0.00 0.00 92 1015.0
20260504150345 17 300 4.8 0.0 0.00 0.00 0.00 94 1016.0
20260504140343 17 10 4.8 0.0 0.00 0.00 0.00 94 1016.0
20260504130341 17 10 4.8 0.0 0.00 0.00 0.00 94 1016.0
20260504110337 13 200 4.8 0.0 0.00 0.00 0.00 91 1015.0
20260504100335 14 200 4.8 0.0 0.00 0.00 0.00 91 1015.0
20260504080331 15 200 4.8 0.0 0.00 0.00 0.00 91 1015.0
20260504070329 15 200 4.8 0.0 0.00 0.00 0.00 91 1016.0
20260504050325 16 200 4.8 0.0 0.00 0.00 0.00 91 1017.0
20260504043324 17 200 4.8 0.0 0.00 0.00 0.00 91 1016.0
20260504040323 17 200 4.8 0.0 0.00 0.00 0.00 91 1017.0
20260504033322 17 200 4.8 0.0 0.00 0.00 0.00 91 1016.0
20260504030321 17 200 4.8 0.0 0.00 0.00 0.00 91 1016.0
20260504023320 18 200 4.8 0.0 0.00 0.00 0.00 91 1016.0
20260504020319 18 200 4.8 0.0 0.00 0.00 0.00 91 1016.0
20260504013318 18 200 4.8 0.0 0.00 0.00 0.00 90 1015.0
20260504010317 18 200 4.8 0.0 0.00 0.00 0.00 91 1014.0
20260504003316 19 200 4.8 0.0 0.00 0.00 0.00 91 1014.0
20260504000314 19 300 4.8 0.0 0.00 0.00 0.00 91 1013.0
20260503233313 20 300 4.8 0.0 0.00 0.00 0.00 91 1012.0
20260503230312 20 300 4.8 0.0 0.00 0.00 0.00 91 1011.0
20260503223311 20 300 4.8 0.0 0.00 0.00 0.00 91 1011.0
20260503220310 20 300 4.8 0.0 0.00 0.00 0.00 91 1010.0
20260503213309 21 300 4.8 0.0 0.00 0.00 0.00 91 1010.0
20260503210308 21 300 4.8 0.0 0.00 0.00 0.00 91 1010.0
20260503203307 21 300 4.8 0.0 0.00 0.00 0.00 91 1010.0
20260503200306 21 300 4.8 0.0 0.00 0.00 0.00 91 1011.0